Regional Weather Roundup
Issued by NWS

Home | Current Version | Previous Version | Text Only | Print | Product List | Glossary On
Versions: 1 2 3 4 5 6 7 8 9 10 11 12 13 14 15 16 17 18 19 20 21 22 23 24 25 26 27
000
ASUS46 KSEW 291510
RWRWA

WASHINGTON REGIONAL WEATHER ROUNDUP
NATIONAL WEATHER SERVICE SEATTLE WA
800 AM PDT WED MAR 29 2017

NOTE:"FAIR" INDICATES FEW OR NO CLOUDS BELOW 12,000 FEET WITH NO
SIGNIFICANT WEATHER AND/OR OBSTRUCTIONS TO VISIBILITY.

WAZ507-509-555>559-291600-
SEATTLE, TACOMA, EVERETT, AND VICINITY

CITY           SKY/WX    TMP DP  RH WIND       PRES   REMARKS
EVERETT        LGT RAIN  45  44  97 VRB6      29.85F FOG
BOEING FIELD   LGT RAIN  47  47 100 SE7       29.87F FOG
RENTON         LGT RAIN  46  46 100 SE6       29.86F FOG
SEATAC AIRPORT LGT RAIN  46  45  96 SE10      29.86F VSB 1
JBLM-MCCHORD   CLOUDY    46  46 100 S7        29.86F
PUYALLUP       DRIZZLE   46  46 100 SW6       29.86F
BREMERTON      CLOUDY    45  43  93 S9        29.87F
JBLM-FT LEWIS  CLOUDY    46  46 100 CALM      29.86F FOG
TACOMA NARROWS LGT RAIN  45  45 100 SE6       29.87F VSB 1
$$

WAZ001-503-506-510-514-515-291600-
NORTH INTERIOR

CITY           SKY/WX    TMP DP  RH WIND       PRES   REMARKS
BELLINGHAM     LGT RAIN  44  43  96 NE6       29.84F FOG
FRIDAY HARBOR  CLOUDY    48  44  86 E15       29.81F
EASTSOUND      LGT RAIN  46  45  93 S8        29.79F
PORT ANGELES   CLOUDY    45  45 100 W3        29.75F FOG
EDIZ HOOK      CLOUDY    46  44  93 CALM      29.75F
PORT TOWNSEND  CLOUDY    46  45  93 SE8G14    29.81F FOG
NAS WHIDBEY    CLOUDY    49  41  74 E14       29.84F
ARLINGTON      CLOUDY    46  37  71 S8        29.88F
BURLINGTON     CLOUDY    45  41  87 E14       29.84F
$$

WAZ020-022-039-040-504-511-512-291600-
SOUTHWEST INTERIOR

CITY           SKY/WX    TMP DP  RH WIND       PRES   REMARKS
SHELTON        LGT RAIN  43  42  97 NW3       29.84F FOG
OLYMPIA        LGT RAIN  48  46  93 S20G26    29.86F FOG
CHEHALIS       CLOUDY    48  46  93 S15G26    29.89F
KELSO          LGT RAIN  49  46  90 SE15G22   29.94R
VANCOUVER      LGT RAIN  51  47  86 S10G18    29.98S
SCAPPOOSE, OR  LGT RAIN  48  47  96 SE10      29.96F
PORTLAND, OR   LGT RAIN  50  46  86 S13       29.99S
$$

WAZ021-516-517-291600-
WASHINGTON COAST

CITY           SKY/WX    TMP DP  RH WIND       PRES   REMARKS
FORKS          RAIN      48  48 100 S8        29.73S VSB 1
HOQUIAM        CLOUDY    51  51 100 S20G30    29.82F FOG
ASTORIA, OR    LGT RAIN  52  49  89 S17G26    29.88S FOG
$$

WAZ019-023-024-040-567>569-291600-
CASCADE MOUNTAINS AND COLUMBIA GORGE

CITY           SKY/WX    TMP DP  RH WIND       PRES   REMARKS
STAMPEDE PASS  NOT AVBL
TROUTDALE, OR  RAIN      47  46  97 E7        30.00S FOG
THE DALLES, OR CLOUDY    47  46  97 CALM      29.97F
$$

WAZ026-027-041>044-520-521-291600-
EAST SLOPES

CITY           SKY/WX    TMP DP  RH WIND       PRES   REMARKS
OMAK           LGT RAIN  43  38  82 S7        29.96F
WENATCHEE      LGT RAIN  41  41 100 NW3       29.94S
ELLENSBURG     RAIN      43  39  86 N6        29.92F
YAKIMA         CLOUDY    48  43  82 NE3       29.92F
SUNNYSIDE ARPT   N/A     43  42  97 E8        29.94F
$$

WAZ028-034-035-291600-
COLUMBIA BASIN

CITY           SKY/WX    TMP DP  RH WIND       PRES   REMARKS
EPHRATA        CLOUDY    44  40  85 S7        29.95F
MOSES LAKE     CLOUDY    45  42  89 S10       29.95F
PASCO            N/A    N/A N/A N/A MISG      29.97F
HERMISTON, OR  CLOUDY    47  46  97 E6        29.95F
$$

WAZ036>038-291600-
NORTHEAST WASHINGTON

CITY           SKY/WX    TMP DP  RH WIND       PRES   REMARKS
SPOKANE GEIGER LGT RAIN  40  38  93 SE9       29.98F FOG
SPOKANE FELTS  LGT RAIN  41  38  89 SE6       30.01F
FAIRCHILD AFB  LGT RAIN  40  40 100 SE8       29.97F
COEURDALENE,ID LGT RAIN  39  37  92 S5        30.02F
DEER PARK      RAIN      39  37  92 SE7       30.00F FOG
$$

WAZ029>033-291600-
SOUTHEAST WASHINGTON

CITY           SKY/WX    TMP DP  RH WIND       PRES   REMARKS
PULLMAN        LGT RAIN  41  39  93 E9        30.03F FOG
LEWISTON, ID   LGT RAIN  45  42  89 E7        30.04F
WALLA WALLA    LGT RAIN  48  46  93 E7        30.00F
PENDLETON, OR  CLOUDY    49  44  83 E7        29.97F
$$




USA.gov is the U.S. government's official web portal to all federal, state and local government web resources and services.